Date String (YYYY-MM-DD hh:mm:ss) UTC,Instrument flags,Ambient pressure (hPa),Sample flow (lpm),Bypass flow (lpm),Sample temperature (°C),Ambient temperature (°C),ASC tube jacket temperature (°C),LED temperature (°C),Box temperature (°C),Sample RH (%),Span deviation,Mass concentration (μg/m³),Mass concentration (μg/m³),Mass concentration (μg/m³)
DateTimeUTC,F1_M11,P_M11,Q1_M11,Q2_M11,T1_M11,T2_M11,T3_M11,T4_M11,T5_M11,U1_M11,ZSPAN_M11,X0_M11,X2_M11,X1_M11
2021-10-26 16:00:00,,0809.2,5.00,0.00,29.6,28.8,00.0,38.7,31.4,11.9,0000.0,0009.26,0003.27,0002.10
2021-10-26 16:01:00,,0809.2,5.00,0.00,29.7,28.8,00.0,38.7,31.4,11.9,0000.0,0009.74,0003.28,0002.08
2021-10-26 16:02:00,,0809.2,4.98,0.00,29.7,28.8,00.0,38.7,31.4,11.9,0000.0,0009.97,0003.25,0002.09
2021-10-26 16:03:00,,0809.2,5.02,0.00,29.7,28.8,00.0,38.7,31.4,11.8,0000.0,0009.57,0003.22,0002.09
2021-10-26 16:04:00,,0809.2,4.99,0.00,29.7,28.8,00.0,38.7,31.5,11.6,0000.0,0009.25,0003.22,0002.08
2021-10-26 16:05:00,,0809.2,4.99,0.00,29.7,28.8,00.0,38.7,31.5,11.7,0000.0,0009.37,0003.25,0002.08
2021-10-26 16:06:00,,0809.2,5.01,0.00,29.7,28.8,00.0,38.8,31.5,11.7,0000.0,0008.98,0003.19,0002.07
2021-10-26 16:07:00,,0809.2,4.99,0.00,29.7,28.9,00.0,38.8,31.5,11.7,0000.0,0008.38,0003.15,0002.05
2021-10-26 16:08:00,,0809.2,5.00,0.00,29.7,28.9,00.0,38.8,31.5,11.7,0000.0,0008.92,0003.19,0002.04
2021-10-26 16:09:00,,0809.2,5.01,0.00,29.8,28.9,00.0,38.8,31.5,11.7,0000.0,0009.83,0003.22,0002.03
2021-10-26 16:10:00,,0809.2,5.00,0.00,29.8,28.9,00.0,38.8,31.5,11.6,0000.0,0010.30,0003.25,0002.04
2021-10-26 16:11:00,,0809.2,4.99,0.00,29.8,28.9,00.0,38.8,31.5,11.6,0000.0,0010.40,0003.28,0002.05
2021-10-26 16:12:00,,0809.2,5.02,0.00,29.8,28.9,00.0,38.8,31.6,11.7,0000.0,0009.94,0003.33,0002.08
2021-10-26 16:13:00,,0809.2,4.99,0.00,29.8,29.0,00.0,38.8,31.6,11.6,0000.0,0009.61,0003.33,0002.09
2021-10-26 16:14:00,,0809.1,4.99,0.00,29.8,29.0,00.0,38.8,31.6,11.6,0000.0,0009.97,0003.38,0002.11
2021-10-26 16:15:00,,0809.1,5.01,0.00,29.8,29.0,00.0,38.9,31.6,11.7,0000.0,0010.73,0003.43,0002.11
2021-10-26 16:16:00,,0809.1,4.99,0.00,29.8,29.0,00.0,38.9,31.6,11.7,0000.0,0011.12,0003.44,0002.13
2021-10-26 16:17:00,,0809.1,5.01,0.00,29.9,29.0,00.0,38.9,31.7,11.6,0000.0,0012.27,0003.48,0002.13
2021-10-26 16:18:00,,0809.1,4.99,0.00,29.9,29.0,00.0,38.9,31.7,11.6,0000.0,0012.55,0003.51,0002.14
2021-10-26 16:19:00,,0809.0,5.02,0.00,29.9,29.1,00.0,38.9,31.7,11.5,0000.0,0012.41,0003.51,0002.15
2021-10-26 16:20:00,,0809.1,5.00,0.00,29.9,29.1,00.0,38.9,31.7,11.6,0000.0,0011.32,0003.50,0002.15
2021-10-26 16:21:00,,0809.1,5.00,0.00,29.9,29.1,00.0,38.9,31.7,11.5,0000.0,0010.92,0003.55,0002.17
2021-10-26 16:22:00,,0809.0,4.99,0.00,29.9,29.1,00.0,38.9,31.7,11.6,0000.0,0011.65,0003.59,0002.19
2021-10-26 16:23:00,,0809.0,5.01,0.00,29.9,29.1,00.0,38.9,31.7,11.7,0000.0,0012.31,0003.55,0002.19
2021-10-26 16:24:00,,0808.9,4.99,0.00,30.0,29.1,00.0,39.0,31.8,11.6,0000.0,0012.31,0003.54,0002.19
2021-10-26 16:25:00,,0808.9,5.01,0.00,30.0,29.1,00.0,39.0,31.7,11.5,0000.0,0012.02,0003.53,0002.19
2021-10-26 16:26:00,,0808.9,5.01,0.00,30.0,29.2,00.0,39.0,31.8,11.6,0000.0,0011.53,0003.49,0002.20
2021-10-26 16:27:00,,0808.9,4.99,0.00,30.0,29.2,00.0,39.0,31.8,11.7,0000.0,0011.89,0003.47,0002.21
2021-10-26 16:28:00,,0808.9,5.01,0.00,30.0,29.2,00.0,39.0,31.8,11.8,0000.0,0010.87,0003.48,0002.23
2021-10-26 16:29:00,,0808.8,5.01,0.00,30.0,29.2,00.0,39.0,31.8,11.8,0000.0,0010.64,0003.49,0002.25
2021-10-26 16:30:00,,0808.8,5.00,0.00,30.0,29.2,00.0,39.0,31.8,11.9,0000.0,0010.67,0003.48,0002.25
2021-10-26 16:31:00,,0808.8,5.01,0.00,30.0,29.2,00.0,39.0,31.8,12.0,0000.0,0011.03,0003.55,0002.27
2021-10-26 16:32:00,,0808.7,5.01,0.00,30.1,29.2,00.0,39.1,31.8,11.9,0000.0,0010.97,0003.52,0002.26
2021-10-26 16:33:00,,0808.7,4.99,0.00,30.1,29.2,00.0,39.1,31.9,12.1,0000.0,0011.05,0003.51,0002.26
2021-10-26 16:34:00,,0808.7,5.00,0.00,30.1,29.2,00.0,39.1,31.9,12.4,0000.0,0010.74,0003.54,0002.25
2021-10-26 16:35:00,,0808.7,5.00,0.00,30.1,29.2,00.0,39.1,31.9,12.4,0000.0,0011.65,0003.64,0002.25
2021-10-26 16:36:00,,0808.8,4.99,0.00,30.1,29.3,00.0,39.1,31.9,12.6,0000.0,0012.46,0003.70,0002.27
2021-10-26 16:37:00,,0808.9,5.01,0.00,30.1,29.3,00.0,39.1,31.9,12.7,0000.0,0014.90,0003.73,0002.29
2021-10-26 16:38:00,,0808.9,5.00,0.00,30.1,29.3,00.0,39.1,31.9,12.8,0000.0,0015.60,0003.79,0002.29
2021-10-26 16:39:00,,0808.8,5.00,0.00,30.1,29.3,00.0,39.2,31.9,12.6,0000.0,0016.70,0003.83,0002.30
2021-10-26 16:40:00,,0808.7,5.00,0.00,30.1,29.3,00.0,39.2,31.9,12.4,0000.0,0017.62,0003.88,0002.30
2021-10-26 16:41:00,,0808.7,5.00,0.00,30.2,29.3,00.0,39.2,31.9,12.4,0000.0,0017.91,0003.94,0002.31
2021-10-26 16:42:00,,0808.7,5.00,0.00,30.2,29.3,00.0,39.2,31.9,12.4,0000.0,0018.65,0004.02,0002.33
2021-10-26 16:43:00,,0808.7,5.01,0.00,30.2,29.4,00.0,39.2,32.0,12.3,0000.0,0019.68,0004.16,0002.36
2021-10-26 16:44:00,,0808.7,4.99,0.00,30.2,29.4,00.0,39.2,32.0,12.3,0000.0,0019.55,0004.25,0002.39
2021-10-26 16:45:00,,0808.7,5.02,0.00,30.2,29.4,00.0,39.2,32.0,12.1,0000.0,0019.90,0004.30,0002.42
2021-10-26 16:46:00,,0808.7,4.99,0.00,30.2,29.4,00.0,39.2,32.0,12.1,0000.0,0020.01,0004.30,0002.45
2021-10-26 16:47:00,,0808.6,5.00,0.00,30.2,29.4,00.0,39.2,32.0,12.4,0000.0,0020.35,0004.33,0002.46
2021-10-26 16:48:00,,0808.7,5.01,0.00,30.3,29.4,00.0,39.3,32.0,12.8,0000.0,0018.38,0004.41,0002.46
2021-10-26 16:49:00,,0808.6,4.99,0.00,30.3,29.5,00.0,39.3,32.1,13.0,0000.0,0017.60,0004.41,0002.46
2021-10-26 16:50:00,,0808.6,5.01,0.00,30.3,29.5,00.0,39.3,32.1,13.1,0000.0,0017.55,0004.46,0002.47
2021-10-26 16:51:00,,0808.6,5.00,0.00,30.3,29.5,00.0,39.3,32.1,13.4,0000.0,0017.74,0004.58,0002.49
2021-10-26 16:52:00,,0808.6,4.99,0.00,30.3,29.5,00.0,39.3,32.1,13.2,0000.0,0019.33,0004.67,0002.53
2021-10-26 16:53:00,,0808.5,5.01,0.00,30.3,29.5,00.0,39.3,32.1,13.1,0000.0,0020.27,0004.70,0002.55
2021-10-26 16:54:00,,0808.4,4.99,0.00,30.3,29.5,00.0,39.4,32.1,13.1,0000.0,0020.05,0004.73,0002.54
2021-10-26 16:55:00,,0808.4,5.00,0.00,30.4,29.5,00.0,39.4,32.1,13.1,0000.0,0020.64,0004.77,0002.53
2021-10-26 16:56:00,,0808.4,5.01,0.00,30.4,29.6,00.0,39.4,32.1,12.9,0000.0,0020.30,0004.79,0002.54
2021-10-26 16:57:00,,0808.4,4.99,0.00,30.4,29.6,00.0,39.4,32.1,12.9,0000.0,0019.87,0004.85,0002.54
2021-10-26 16:58:00,,0808.4,5.00,0.00,30.4,29.6,00.0,39.4,32.2,12.6,0000.0,0019.80,0004.86,0002.55
2021-10-26 16:59:00,,0808.5,5.00,0.00,30.4,29.6,00.0,39.4,32.2,12.6,0000.0,0019.89,0004.83,0002.55
